Temp
16 16 16 16 16 16 16 16 16 16 16 17 16 16 17 19 19 18 17 17 17 18 19 16 16 17 13 10 10 9 9 11 10 10 10 10 11 11 12 12 13 13 13 14 14 14 15 16 15 15 15 12 7 4 2 3 6 9 13 13 11 11 13 14 14 16 15 10 8 9 8 9 12 12 12 12 11 11 11 11 10 10 10 10 10 11 12
16 16 16 16 16 16 16 16 15 15 15 16 15 16 17 17 17 17 17 17 17 18 18 18 18 16 12 11 11 9 9 10 10 11 12 11 11 12 13 12 12 12 12 12 14 14 14 15 14 13 14 11 3 1 2 3 7 10 9 10 10 11 14 14 13 15 15 13 12 11 10 11 13 13 12 10 9 8 8 9 9 9 10 11 10 11 13
16 16 16 16 16 16 16 16 15 15 15 15 15 15 16 16 16 17 17 17 16 16 15 16 18 16 13 13 13 11 10 9 9 10 11 10 10 12 12 11 11 11 11 12 13 13 13 14 13 11 13 10 3 1 1 2 6 7 4 4 7 11 14 14 13 14 14 14 15 13 12 12 13 13 11 8 8 8 8 9 9 9 10 11 10 10 13
16 16 16 16 15 15 15 15 15 15 15 15 14 14 16 17 18 18 18 17 16 14 12 14 17 15 15 15 13 12 13 10 7 8 10 10 9 10 11 10 11 12 12 12 14 13 12 13 11 11 12 11 6 2 1 2 4 3 2 2 6 10 12 12 13 13 13 14 14 13 12 12 12 12 10 8 7 7 8 8 9 9 9 10 11 11 11
16 16 16 15 15 15 15 15 15 15 14 14 14 14 15 17 17 17 17 17 16 15 13 14 15 14 14 15 13 13 14 13 9 8 9 9 9 10 11 10 11 13 12 13 14 13 12 12 11 10 11 10 7 2 2 3 3 2 3 4 6 10 12 10 11 12 12 13 13 12 12 11 11 11 10 9 8 6 6 7 8 9 8 8 11 11 9
16 15 15 15 15 15 15 15 15 15 15 14 14 15 14 16 16 13 12 15 17 16 14 13 13 13 13 13 13 13 14 14 13 11 9 9 9 11 12 11 12 13 13 13 14 14 13 13 11 10 9 9 9 6 4 4 3 4 6 6 6 10 11 8 8 9 10 11 11 12 12 11 11 10 9 9 8 6 6 6 8 8 7 8 9 9 8
15 15 15 15 15 15 15 15 15 15 15 14 15 16 14 14 15 12 10 13 14 12 10 11 12 13 13 13 13 13 14 15 14 12 11 11 10 10 13 13 12 13 12 12 13 14 14 13 11 10 9 9 10 11 8 6 5 6 8 7 5 8 10 8 6 7 9 11 11 11 10 10 10 9 9 9 9 8 7 7 8 8 8 8 9 8 8
15 15 15 15 15 15 14 15 15 14 15 14 15 15 14 14 16 13 12 13 12 10 9 11 14 14 13 14 14 13 14 15 13 12 12 13 12 10 12 13 12 11 11 12 13 13 12 12 10 9 9 9 10 11 10 9 7 7 8 7 6 8 10 8 7 8 10 11 10 10 10 9 9 9 9 9 9 9 8 7 8 8 8 8 8 7 8
15 15 15 15 15 15 15 15 15 14 14 14 14 14 12 12 12 13 15 15 12 11 12 12 15 16 15 15 14 13 14 13 12 12 11 11 12 11 11 12 11 11 11 11 12 10 9 10 9 8 9 9 9 10 10 9 8 7 7 6 6 8 9 9 9 10 11 11 10 10 10 9 8 7 7 7 8 8 8 8 8 8 7 7 7 7 8
15 15 15 15 15 15 15 15 15 14 14 14 15 14 11 11 11 12 15 16 13 12 14 14 15 16 14 14 13 13 13 11 11 12 11 9 9 9 9 11 11 12 12 10 9 7 7 7 7 7 8 8 8 8 8 8 8 8 7 6 6 7 8 10 10 10 11 12 11 11 11 8 7 7 6 7 7 7 7 7 7 8 7 7 7 7 7
15 15 15 15 15 15 15 15 14 14 14 13 14 14 12 13 14 14 15 17 14 11 14 16 16 15 13 12 12 12 12 11 11 12 12 10 7 6 7 9 11 12 11 7 4 4 5 6 6 6 7 7 7 7 7 7 7 7 7 7 6 6 7 9 9 9 10 11 10 11 11 9 8 7 6 7 7 6 6 6 7 8 8 7 7 6 6
15 15 15 15 15 15 15 15 15 14 14 13 13 14 13 13 15 15 16 18 14 10 13 15 13 12 11 10 11 12 11 10 9 9 10 10 8 6 7 9 11 10 6 4 4 4 5 5 6 7 7 7 7 7 7 7 6 6 7 7 7 7 7 9 9 8 9 10 9 10 10 9 8 8 7 7 7 6 6 6 7 7 7 6 5 5 4
15 15 15 15 15 15 15 15 15 14 14 13 13 14 14 13 14 15 15 17 16 14 15 14 9 9 9 9 10 11 9 8 7 7 8 9 8 8 7 7 8 7 4 4 4 5 6 8 8 7 7 7 7 7 7 6 6 6 6 6 7 7 8 8 8 8 9 9 9 9 9 8 8 8 7 6 6 6 5 5 6 7 6 4 3 3 3
15 15 15 15 15 15 15 15 15 14 14 13 12 13 13 13 14 14 14 16 16 13 12 13 12 10 10 10 10 10 9 7 7 8 7 6 7 8 6 5 5 4 3 4 5 6 9 12 11 11 10 9 9 8 7 6 6 6 6 6 7 7 8 8 9 8 8 8 8 9 9 8 7 6 6 6 5 5 4 4 5 5 4 3 2 2 2
15 15 15 15 15 15 15 15 15 14 13 12 12 12 13 12 13 14 14 15 16 13 11 13 13 12 12 11 10 11 12 11 10 9 6 5 6 7 5 4 3 3 3 5 7 10 11 12 13 14 13 12 12 11 9 7 6 5 6 6 6 7 7 8 8 8 8 7 7 8 9 8 6 5 5 6 5 6 5 4 4 4 3 2 2 2 1
15 14 14 15 15 15 15 14 15 14 13 12 12 12 12 12 12 13 13 14 17 15 10 7 7 9 11 10 9 10 13 13 13 12 10 8 7 6 5 3 3 3 3 6 9 10 11 11 12 13 13 13 12 11 11 10 8 6 6 6 7 7 7 7 8 8 8 7 6 7 8 7 5 4 5 5 5 6 5 4 4 3 2 2 2 1 1
14 14 14 14 14 14 14 14 14 13 12 12 11 11 12 12 12 13 13 14 15 12 5 1 4 9 12 12 10 10 11 12 12 13 13 12 9 7 5 4 4 3 4 8 10 11 12 12 12 13 13 11 10 11 11 11 10 8 7 7 7 7 7 8 7 7 7 6 6 8 8 6 4 4 5 5 5 5 4 4 3 2 1 1 1 0 -0
14 14 14 14 14 14 13 13 13 13 12 11 11 11 11 11 12 12 13 14 14 10 2 -2 2 8 8 8 9 9 9 10 11 13 13 12 10 9 7 6 6 6 5 8 11 12 12 12 11 12 12 10 9 10 11 10 9 8 7 7 7 6 6 7 6 6 7 6 5 7 7 4 3 4 4 4 5 5 3 2 1 1 0 0 0 -1 -1
14 14 14 14 13 13 13 13 12 12 11 11 11 11 11 11 11 12 13 13 13 10 2 -3 0 3 2 1 5 7 8 8 10 12 14 14 10 8 7 6 7 8 8 9 11 11 12 12 10 10 11 11 10 10 9 8 7 7 7 7 6 5 5 6 5 5 6 6 5 6 6 4 3 4 4 4 3 2 1 0 0 0 -0 -0 -1 -1 -2
13 14 13 13 13 13 12 12 12 12 11 11 11 11 11 11 11 12 12 12 10 7 1 -2 -1 0 -0 0 4 6 7 9 10 11 14 13 8 7 9 10 9 9 10 11 11 10 11 11 10 9 10 11 10 9 8 6 5 6 6 5 4 3 4 5 6 4 4 5 5 5 4 5 4 3 2 2 0 -1 -0 -0 -0 -0 -1 -1 -1 -2 -2
14 14 13 13 13 13 12 12 12 12 11 11 11 11 10 10 11 11 12 12 11 8 3 -1 -2 -1 -2 -1 -1 -0 2 4 5 6 10 10 7 8 12 12 10 10 10 10 10 10 10 10 10 9 9 10 10 9 7 6 5 5 5 4 3 3 3 4 4 4 3 3 4 4 4 4 4 2 1 1 0 -0 -0 -1 -1 -1 -1 -1 -2 -3 -3
14 14 13 13 13 13 13 13 12 13 12 12 12 11 9 9 10 11 12 10 7 5 2 -1 -3 -2 -3 -3 -3 -3 -2 -1 -2 -1 3 7 8 9 10 10 9 8 8 9 10 10 9 9 9 9 9 10 9 7 7 7 6 4 5 4 3 3 3 3 3 4 4 3 3 4 4 3 3 2 1 1 0 0 -0 -1 -2 -2 -2 -2 -3 -3 -4
14 14 13 13 13 13 13 13 13 13 13 12 12 11 10 10 10 11 11 8 2 0 -1 -2 -2 -1 -2 -2 -3 -3 -3 -3 -3 -3 -2 2 8 9 8 8 8 6 6 7 8 9 10 9 9 9 9 8 7 7 6 6 5 4 4 4 3 3 3 3 3 3 3 3 4 4 3 2 1 1 1 0 -0 -0 -1 -2 -2 -3 -3 -3 -4 -4 -5
14 14 13 13 13 13 13 13 13 13 12 12 12 11 11 11 10 10 10 8 6 5 3 2 2 2 1 -1 -2 -3 -3 -3 -3 -3 -4 -2 4 9 8 5 4 5 7 6 5 7 9 8 7 8 7 5 5 7 7 4 3 4 3 3 3 3 3 2 3 2 1 3 4 3 1 -0 -0 0 0 -0 -1 -1 -1 -3 -3 -4 -4 -4 -4 -5 -5
14 13 13 13 13 13 13 13 12 12 12 12 12 11 11 11 11 11 11 11 11 11 10 7 4 1 -1 -1 -2 -3 -3 -4 -4 -3 -3 -4 -1 4 5 2 1 3 5 5 4 6 8 7 7 8 7 5 5 6 6 4 3 3 2 1 1 2 2 1 1 1 0 2 3 1 -1 -1 -0 -0 -1 -1 -1 -1 -2 -3 -4 -4 -4 -5 -5 -5 -6
13 13 13 13 13 13 13 12 12 12 12 12 12 11 11 11 11 10 11 11 12 13 13 9 4 0 -1 -0 -1 -3 -3 -3 -4 -4 -3 -4 -3 -2 -1 -0 1 2 3 4 5 6 7 8 7 7 6 5 4 4 4 3 3 2 1 0 0 1 1 0 -0 -0 0 1 1 -2 -3 -2 -1 -1 -1 -1 -2 -3 -4 -4 -4 -5 -5 -6 -6 -6 -7
13 13 13 13 13 12 13 13 12 12 12 12 12 11 11 11 10 10 10 11 12 14 13 10 5 2 -0 -1 -2 -2 -3 -4 -4 -3 -3 -3 -3 -3 -3 0 3 4 4 5 5 6 7 7 5 4 4 3 3 3 2 2 2 1 0 0 1 0 -1 -1 -1 -2 -1 -1 -2 -3 -4 -3 -2 -2 -2 -2 -2 -4 -5 -5 -5 -6 -6 -7 -7 -7 -7
13 13 13 12 12 12 13 13 13 12 12 12 12 11 11 11 11 10 10 10 11 12 11 9 6 4 2 1 -1 -2 -2 -3 -4 -3 -3 -3 -3 -2 -1 1 4 4 5 6 6 6 6 5 3 3 3 3 3 2 2 2 2 0 -1 -0 0 -1 -2 -2 -2 -3 -2 -2 -2 -3 -3 -3 -3 -3 -3 -3 -3 -4 -6 -6 -6 -6 -7 -7 -8 -8 -9
13 13 13 12 12 13 13 13 13 12 12 11 11 11 11 11 10 11 10 10 10 9 8 7 7 6 4 3 0 -1 -1 -2 -3 -2 -2 -1 -1 0 1 3 4 4 4 6 6 5 4 4 4 3 3 3 3 2 2 2 1 -0 -1 -1 -0 -1 -1 -1 -2 -3 -2 -2 -3 -3 -3 -4 -4 -3 -3 -3 -4 -5 -6 -6 -6 -7 -7 -8 -9 -9 -9
13 12 12 12 12 12 12 12 13 12 12 11 11 11 12 12 11 10 10 10 10 10 9 10 9 6 4 3 2 -0 -1 -1 -1 -1 -0 1 1 1 1 2 3 4 5 6 6 5 4 4 4 3 3 3 3 2 1 1 1 0 -0 -1 -1 -1 -1 -2 -2 -2 -3 -3 -3 -3 -4 -4 -4 -3 -4 -4 -5 -6 -6 -7 -7 -7 -8 -9 -10 -10 -10
13 12 12 12 12 12 12 12 12 13 12 11 11 12 14 13 11 10 10 10 11 11 11 9 7 6 5 4 2 1 0 -1 -0 0 0 1 2 2 1 2 4 5 6 5 5 4 4 4 3 3 2 2 2 1 0 -0 -1 -1 -1 -1 -2 -2 -2 -2 -2 -2 -3 -3 -3 -4 -4 -4 -4 -5 -5 -5 -6 -6 -7 -7 -8 -8 -9 -10 -11 -11 -11
13 12 12 12 12 12 12 12 12 13 12 11 11 11 11 11 10 10 10 11 10 11 11 10 8 8 8 6 2 1 1 0 0 2 2 3 4 4 3 4 4 5 5 5 5 4 4 3 2 1 1 2 1 0 -0 -1 -2 -2 -2 -2 -2 -2 -2 -3 -3 -3 -3 -3 -5 -6 -6 -5 -5 -6 -7 -6 -6 -7 -8 -8 -9 -9 -10 -11 -11 -12 -12
13 12 12 12 12 12 12 12 12 12 12 11 10 10 9 10 10 10 11 11 10 10 11 11 10 9 8 6 4 2 2 2 3 5 5 4 3 5 5 5 5 5 5 4 4 4 3 3 2 1 1 1 1 0 -1 -2 -2 -2 -2 -2 -2 -2 -3 -3 -4 -4 -4 -4 -5 -6 -7 -7 -6 -7 -7 -7 -7 -8 -9 -9 -10 -10 -11 -12 -12 -13 -13
13 12 12 12 12 12 12 11 11 12 12 12 11 10 10 10 10 10 11 11 10 10 9 9 10 10 8 7 6 4 3 4 6 7 6 4 3 4 6 6 6 5 5 4 4 4 4 3 3 1 1 0 0 -1 -1 -2 -2 -2 -2 -2 -2 -3 -4 -4 -5 -5 -5 -6 -6 -6 -6 -7 -7 -7 -8 -8 -8 -9 -10 -10 -11 -11 -12 -13 -13 -13 -14
13 12 12 12 12 12 12 12 12 12 12 12 11 11 10 10 10 11 11 10 11 11 9 7 9 9 8 9 9 6 3 5 6 5 4 4 4 4 5 6 6 4 4 4 4 4 3 3 2 1 0 -1 -2 -2 -3 -3 -3 -3 -3 -3 -3 -4 -5 -6 -6 -6 -6 -6 -6 -7 -7 -7 -8 -9 -9 -9 -9 -10 -10 -11 -12 -12 -13 -14 -14 -14 -14
13 12 12 12 12 12 11 12 12 12 12 12 11 11 11 11 11 11 11 10 11 10 9 7 7 7 6 8 9 6 4 5 6 4 4 5 4 4 5 6 5 3 3 4 4 2 2 2 2 0 -1 -2 -3 -3 -3 -3 -3 -3 -3 -3 -4 -5 -6 -6 -7 -7 -7 -7 -7 -7 -7 -8 -9 -10 -10 -10 -10 -11 -11 -12 -13 -13 -14 -15 -15 -15 -15
13 13 12 12 12 12 12 11 11 11 12 11 11 11 11 11 11 12 11 10 9 8 8 8 7 5 4 6 6 5 5 6 6 5 5 4 4 4 4 5 5 3 3 4 3 2 2 2 1 -1 -2 -2 -3 -3 -3 -3 -3 -4 -4 -4 -5 -6 -6 -6 -7 -8 -8 -8 -8 -8 -9 -10 -10 -10 -11 -11 -11 -12 -13 -13 -14 -14 -15 -15 -15 -16 -16
13 13 12 12 12 12 13 12 11 11 11 11 11 12 11 11 12 11 9 8 7 7 7 7 5 4 4 5 5 5 5 5 6 6 5 4 4 5 5 4 4 3 3 3 2 1 1 1 -1 -2 -2 -3 -3 -3 -3 -3 -3 -3 -4 -5 -6 -6 -7 -7 -8 -8 -9 -9 -9 -10 -10 -11 -11 -12 -12 -12 -12 -13 -14 -14 -14 -15 -15 -16 -16 -17 -17
13 13 12 13 13 13 12 11 11 11 12 11 12 12 11 10 11 11 8 7 7 6 6 5 4 3 4 5 5 4 3 3 5 6 5 4 4 5 5 4 4 3 3 3 2 1 1 -0 -1 -2 -2 -2 -3 -3 -3 -3 -3 -3 -4 -5 -7 -7 -8 -8 -8 -9 -9 -10 -10 -10 -11 -12 -12 -13 -13 -13 -14 -14 -15 -15 -15 -15 -16 -17 -17 -18 -18
13 12 13 13 13 12 11 11 11 12 12 11 11 11 11 10 9 8 8 8 7 5 4 4 3 2 1 3 4 3 2 2 4 4 4 4 4 4 4 5 3 3 4 3 1 1 1 0 -1 -1 -1 -2 -3 -3 -3 -4 -4 -4 -5 -6 -7 -8 -8 -9 -9 -9 -9 -10 -10 -11 -11 -12 -13 -13 -13 -14 -15 -15 -16 -16 -16 -16 -17 -18 -18 -18 -19
13 13 14 14 13 12 11 11 11 11 11 12 11 10 10 9 7 5 6 9 7 4 2 2 3 3 2 1 3 3 2 1 1 1 2 3 3 3 4 4 3 3 4 2 0 1 2 0 -1 -1 -1 -2 -3 -4 -4 -4 -4 -4 -5 -7 -8 -8 -9 -9 -10 -10 -10 -10 -11 -11 -12 -13 -14 -15 -15 -15 -16 -16 -17 -17 -17 -17 -18 -18 -19 -19 -19
14 14 13 13 12 12 12 12 11 11 11 12 12 9 7 7 7 6 6 7 5 3 2 2 2 3 2 0 1 2 1 -1 -0 1 3 4 3 2 3 4 3 4 4 1 -1 1 2 -0 -1 -1 -1 -3 -4 -4 -4 -5 -5 -5 -6 -8 -8 -9 -9 -10 -10 -10 -11 -11 -12 -12 -13 -14 -15 -15 -16 -17 -17 -17 -18 -18 -17 -18 -18 -19 -19 -20 -20
14 13 13 13 12 12 12 11 10 9 10 10 11 10 9 7 7 6 5 4 2 2 2 1 1 2 2 0 -0 1 0 -1 -0 1 3 2 2 2 4 4 4 3 1 -1 -0 2 1 -1 -1 -1 -2 -3 -4 -4 -5 -5 -5 -6 -7 -8 -9 -9 -10 -11 -10 -10 -11 -12 -13 -13 -14 -15 -16 -16 -17 -17 -18 -18 -18 -18 -18 -18 -19 -20 -20 -20 -20
13 13 13 13 12 12 13 12 10 10 10 9 8 10 11 9 7 6 6 4 2 1 1 -0 -0 1 2 1 0 1 1 0 1 2 2 1 1 3 4 4 2 1 -0 -1 0 0 -1 -2 -1 -1 -3 -4 -4 -5 -6 -6 -6 -7 -8 -9 -9 -10 -11 -11 -11 -11 -12 -13 -13 -14 -15 -15 -16 -17 -17 -17 -18 -18 -18 -19 -19 -19 -20 -20 -21 -21 -21
14 14 14 14 12 11 12 12 10 9 10 8 6 7 8 8 8 7 4 1 -0 0 -0 -2 -2 -1 -0 0 0 -0 -0 1 2 2 0 0 2 3 3 1 0 -0 0 1 0 -1 -2 -1 -0 -2 -4 -5 -5 -6 -6 -6 -7 -8 -9 -9 -10 -11 -11 -11 -11 -12 -12 -13 -14 -15 -15 -16 -17 -17 -17 -18 -18 -19 -19 -19 -19 -20 -20 -21 -21 -21 -21
12 11 13 15 13 9 9 11 10 8 7 6 5 6 6 6 5 4 -0 -3 -1 0 -1 -3 -3 -2 -0 1 1 -0 -1 1 2 1 -2 0 3 3 -0 -1 0 1 1 1 1 -0 -0 0 -1 -3 -5 -6 -6 -6 -6 -6 -8 -9 -10 -10 -11 -11 -11 -11 -12 -12 -13 -14 -15 -15 -16 -17 -17 -18 -18 -18 -19 -19 -19 -19 -20 -20 -21 -21 -22 -22 -22
12 9 11 15 12 8 8 9 7 5 4 3 3 3 2 0 0 -1 -3 -4 -3 -2 -4 -5 -4 -3 -2 -0 1 1 -0 0 2 0 -1 1 3 1 -1 1 2 0 0 1 1 -0 -0 -1 -2 -5 -6 -6 -7 -7 -7 -7 -8 -10 -11 -11 -11 -11 -11 -12 -13 -13 -14 -15 -16 -16 -17 -17 -18 -18 -19 -19 -19 -20 -20 -20 -20 -21 -21 -22 -22 -22 -22
11 9 11 13 11 8 7 6 4 2 1 0 -1 -2 -4 -3 -1 -1 -4 -6 -5 -3 -4 -4 -2 -1 -1 -1 1 2 1 1 2 1 -1 0 2 2 2 3 2 -1 -2 -0 -0 -1 -1 -2 -4 -6 -7 -7 -8 -8 -8 -8 -9 -11 -11 -11 -12 -12 -12 -12 -13 -14 -15 -16 -17 -17 -18 -18 -19 -19 -20 -20 -20 -20 -20 -20 -21 -22 -22 -22 -22 -22 -22
8 8 8 7 5 4 3 2 3 4 2 -1 -2 -3 -3 -1 1 -1 -4 -6 -5 -5 -6 -6 -3 1 1 0 1 2 2 1 2 1 0 1 2 1 1 2 2 0 -1 -1 -1 -1 -2 -4 -6 -7 -8 -9 -9 -8 -8 -9 -10 -12 -12 -12 -12 -13 -13 -13 -14 -15 -16 -17 -17 -18 -18 -19 -19 -19 -20 -20 -20 -20 -21 -21 -21 -22 -22 -22 -22 -22 -22
6 7 5 4 5 5 2 1 4 7 5 2 1 0 -0 0 0 -2 -5 -6 -5 -6 -6 -5 -3 -1 0 1 2 4 2 -1 -1 1 2 2 -0 -2 -1 1 2 1 -1 -1 -2 -2 -3 -5 -7 -8 -8 -9 -9 -9 -9 -11 -12 -12 -13 -13 -13 -13 -14 -14 -15 -16 -17 -17 -18 -19 -19 -19 -20 -20 -20 -21 -21 -21 -21 -21 -22 -22 -22 -22 -22 -22 -22
6 5 2 0 3 5 4 4 6 7 5 4 3 1 -1 -0 -0 -3 -6 -7 -6 -4 -1 -0 -1 -0 2 4 5 4 1 -2 -2 -0 1 -1 -3 -3 1 2 1 -0 -1 -1 -3 -4 -5 -6 -8 -8 -9 -10 -9 -10 -11 -12 -13 -13 -13 -13 -14 -14 -15 -15 -17 -17 -18 -18 -19 -19 -19 -20 -20 -21 -21 -21 -22 -22 -22 -21 -22 -22 -22 -22 -22 -22 -22
6 6 2 -1 -2 -0 1 3 4 4 2 1 1 -1 -2 -1 -2 -5 -7 -7 -3 -0 1 -0 -1 2 5 4 1 0 0 -0 0 1 0 -2 -3 -2 0 1 -1 -2 -2 -3 -4 -5 -6 -7 -8 -10 -10 -10 -10 -11 -12 -13 -13 -13 -14 -14 -14 -15 -16 -17 -18 -18 -19 -19 -19 -20 -20 -20 -20 -21 -22 -22 -22 -22 -22 -22 -22 -22 -23 -22 -22 -22 -22
Height
852 851 849 848 847 846 845 844 842 840 839 837 836 835 833 833 832 831 831 830 829 828 831 837 837 836 846 854 855 857 856 854 855 856 855 854 853 852 849 848 846 844 844 842 840 839 835 830 830 830 829 839 854 866 869 866 860 849 837 835 844 842 831 828 823 808 810 829 837 836 838 834 826 824 824 826 828 830 831 830 832 834 829 824 824 815 799
852 851 849 849 847 846 845 844 842 841 839 838 837 835 835 836 834 832 831 829 828 830 834 835 833 839 850 851 851 856 857 854 854 853 851 852 852 850 847 848 849 847 849 847 842 841 839 832 833 836 833 844 866 872 870 867 857 850 849 847 848 842 826 825 826 813 810 819 821 825 832 828 819 818 826 834 837 843 846 840 838 838 827 820 823 812 794
852 851 850 849 847 846 845 844 843 842 840 839 838 837 836 836 834 833 832 830 830 834 839 838 835 840 846 847 849 852 854 857 858 854 854 855 854 851 849 851 852 850 850 849 845 845 843 837 839 844 839 847 867 871 871 871 861 859 866 865 858 844 828 827 830 825 820 816 814 819 823 822 817 818 831 843 844 845 844 838 837 835 823 818 822 811 795
852 851 849 848 847 846 844 844 843 842 841 840 839 838 837 835 835 834 832 831 834 840 845 842 838 841 843 844 849 849 847 854 861 859 855 856 857 854 852 854 853 850 850 846 841 842 845 844 846 846 841 845 861 870 871 871 867 867 872 870 861 846 836 834 831 828 826 821 818 822 824 826 823 821 831 843 848 850 848 843 838 831 828 824 816 810 807
851 851 849 847 847 845 845 844 843 842 842 841 840 840 838 836 838 840 838 837 836 840 845 843 841 845 844 843 848 849 844 847 856 859 856 857 859 855 852 854 851 847 847 844 839 841 844 846 849 851 848 848 858 869 871 868 869 871 869 866 861 847 838 841 840 834 831 827 824 824 826 829 829 829 834 838 845 854 854 849 838 833 838 831 813 814 822
851 850 848 847 846 846 845 844 843 842 842 841 841 840 840 839 842 847 847 843 840 840 845 848 847 848 847 847 850 849 845 844 847 853 857 858 859 854 849 851 850 846 847 845 840 840 840 841 846 850 852 852 852 857 865 866 867 868 862 862 862 849 840 851 855 846 838 834 830 827 828 831 832 835 838 837 841 851 856 853 844 841 846 837 821 824 828
850 849 848 847 846 845 845 843 843 843 842 842 841 840 842 843 844 849 851 847 847 850 854 854 849 847 848 848 849 848 845 843 845 850 853 853 855 855 847 846 848 847 848 848 843 841 840 841 846 850 853 854 849 846 853 860 863 862 858 861 866 853 842 854 863 854 841 833 829 830 833 836 836 838 840 838 839 844 848 850 845 841 842 835 829 830 826
850 849 847 847 846 845 844 843 843 843 842 842 841 841 843 842 841 846 848 848 852 856 857 853 846 846 847 845 847 849 845 844 847 851 850 847 850 855 849 845 850 851 851 849 845 845 848 848 851 855 855 853 851 846 846 852 859 861 858 861 865 856 846 852 858 847 831 829 834 836 836 838 840 841 843 842 841 841 844 846 843 840 839 835 832 832 824
849 848 847 846 845 844 844 843 843 843 842 842 842 842 843 843 842 844 842 844 852 854 852 850 843 840 842 843 846 849 846 847 850 850 852 852 851 853 852 848 851 853 851 850 848 852 856 854 855 859 857 853 853 851 850 852 855 858 861 864 863 857 849 847 849 840 826 828 835 831 832 842 848 849 851 849 847 847 847 846 843 842 841 838 835 832 826
849 848 847 846 846 844 844 844 842 843 842 842 842 842 843 844 843 844 842 843 849 850 846 845 843 841 844 847 848 849 849 853 854 850 853 858 858 858 857 854 851 848 847 852 857 860 862 860 859 860 859 857 856 855 856 857 855 856 861 865 864 861 853 844 846 843 827 823 828 825 829 842 849 853 858 855 852 852 849 847 845 842 841 839 836 832 831
849 848 847 846 845 844 844 843 842 842 842 842 842 842 843 843 842 844 843 840 847 854 847 841 841 844 849 852 852 852 852 854 855 851 850 856 862 864 862 858 852 848 851 861 866 866 864 863 862 861 859 859 858 858 859 860 861 860 861 863 865 868 862 849 848 849 834 826 829 824 821 833 844 852 857 855 854 855 855 852 848 842 839 838 838 838 839
849 848 847 846 845 844 843 842 841 842 841 842 843 841 842 843 842 843 842 838 846 855 848 843 849 851 853 856 855 853 854 856 859 860 856 856 861 864 862 859 854 853 861 867 867 866 865 863 862 861 859 859 859 860 860 861 863 864 862 862 863 864 860 852 852 854 842 834 835 829 825 836 848 850 852 855 855 854 854 852 846 842 841 843 846 848 847
848 848 846 845 844 843 843 842 841 841 841 841 843 842 842 843 842 843 843 839 842 848 846 848 858 860 858 859 858 856 859 863 864 865 863 861 861 862 863 862 860 861 867 867 866 866 860 854 855 857 859 861 860 861 863 864 864 865 865 865 864 861 858 854 852 850 844 840 842 840 839 845 850 849 851 856 855 854 855 853 846 844 847 851 855 854 851
848 847 846 845 844 843 842 842 841 841 841 841 843 843 843 844 843 843 843 840 841 849 851 848 852 856 856 857 857 856 859 863 863 863 865 865 863 862 864 866 866 867 868 866 864 861 851 842 841 843 847 852 852 854 862 866 867 867 866 866 865 861 858 855 851 850 851 851 846 840 836 840 852 859 860 861 861 861 863 859 851 849 853 857 857 855 852
848 847 846 845 844 843 842 842 841 841 841 842 843 844 843 844 844 843 844 842 841 848 853 851 851 854 854 856 859 855 851 853 855 858 865 869 866 863 865 868 867 868 869 865 858 853 846 841 836 830 830 835 836 840 851 860 867 870 869 866 866 862 860 859 856 853 854 855 852 844 838 842 858 867 864 864 865 861 861 861 854 851 856 858 856 856 856
848 848 847 845 845 844 843 843 842 842 842 842 843 844 844 845 845 844 845 844 841 845 857 863 864 860 855 857 861 857 851 848 849 850 854 860 863 864 866 868 867 868 869 863 856 850 845 843 839 832 831 834 836 839 842 845 855 867 868 865 864 863 861 860 857 854 856 861 861 852 844 851 867 871 865 864 864 858 858 859 850 849 859 862 861 861 859
849 849 848 846 846 845 844 844 843 843 843 844 844 845 845 846 846 845 846 845 845 854 867 872 868 861 855 854 857 857 855 853 851 848 846 851 859 862 865 867 867 868 867 859 852 847 843 841 839 833 833 840 845 844 839 838 848 860 864 863 863 863 861 859 859 858 859 865 864 849 843 859 874 871 866 866 862 856 858 857 850 854 864 867 866 866 863
851 850 849 848 847 846 846 845 845 845 845 845 845 846 846 846 846 846 847 846 846 858 872 875 869 863 862 862 861 860 859 857 854 850 846 849 856 859 861 864 863 863 865 859 849 844 841 842 844 841 839 847 852 847 843 848 857 862 863 864 866 869 867 865 868 866 861 866 867 854 852 870 878 871 868 867 858 855 862 867 867 869 871 868 868 869 867
852 851 851 850 849 848 847 847 846 846 846 846 846 846 846 847 847 847 848 847 848 859 873 876 873 871 872 872 868 864 862 860 857 851 845 846 855 861 862 863 861 859 859 855 849 848 844 844 852 853 844 844 850 850 853 864 871 868 868 870 874 880 877 869 871 874 868 867 869 860 858 870 876 873 871 869 868 873 879 880 879 879 876 872 870 870 869
853 852 852 851 850 850 849 848 848 848 848 847 847 847 847 848 848 848 848 850 853 864 874 877 875 875 875 874 871 867 864 861 858 854 847 848 859 862 854 853 857 856 853 850 849 851 848 846 853 856 848 845 849 854 863 876 880 876 878 883 887 891 886 874 874 881 878 872 870 871 871 871 873 877 877 877 884 892 889 883 881 880 878 875 872 871 870
854 854 853 852 852 851 850 850 849 849 849 848 848 848 848 849 849 849 850 850 852 861 872 876 876 877 876 877 877 876 873 870 868 866 860 857 862 860 851 851 857 857 855 854 853 853 854 854 854 855 854 851 852 857 865 874 881 883 884 887 893 896 893 888 884 886 888 884 878 877 879 878 878 884 886 886 890 892 888 885 882 879 877 876 873 872 873
855 855 854 854 854 853 852 852 851 850 850 850 849 849 850 850 851 850 850 851 855 863 872 876 877 877 877 878 878 878 878 878 878 877 872 866 862 860 858 858 860 862 863 861 855 853 856 857 856 855 854 853 856 866 871 870 878 887 887 887 894 898 899 899 894 889 892 891 884 880 882 883 886 890 889 889 890 890 888 888 885 881 879 878 876 874 874
857 856 856 856 855 854 854 853 852 852 851 851 850 851 851 851 852 852 851 854 861 869 875 876 876 877 878 879 879 879 879 879 878 879 879 873 864 860 862 863 864 866 867 864 861 858 856 857 858 856 858 863 866 870 873 876 884 892 892 892 897 899 900 900 895 893 894 887 880 882 887 890 892 892 890 890 892 890 889 889 887 885 883 881 880 878 876
858 858 857 857 857 856 855 854 854 853 853 852 852 852 852 852 853 853 853 855 859 866 872 875 876 877 879 880 879 879 879 879 878 878 879 878 870 862 864 869 870 869 867 868 869 865 860 863 865 861 865 875 875 868 873 886 893 893 895 900 900 898 900 900 896 900 901 888 879 885 893 896 895 892 890 892 892 891 891 891 889 888 886 884 883 881 878
859 859 859 858 858 857 856 855 855 854 854 853 853 853 853 854 853 854 854 854 854 856 861 870 877 880 881 881 880 880 879 879 879 878 878 879 877 870 870 873 874 871 870 870 871 867 863 865 866 863 868 878 879 875 879 889 895 896 901 909 909 902 903 904 903 905 903 891 886 893 899 899 896 894 893 893 890 890 892 893 891 890 887 885 884 882 880
861 860 860 860 859 858 857 856 856 855 854 854 854 854 854 854 854 854 854 854 853 852 855 867 878 881 881 880 880 880 880 878 878 879 878 878 878 877 876 876 875 874 873 871 870 868 865 865 864 866 873 880 883 885 889 894 900 903 907 913 914 909 908 909 909 907 901 894 895 900 900 897 895 894 894 893 891 891 893 893 892 890 888 886 884 882 882
862 861 861 860 860 859 858 857 856 856 856 855 855 855 855 855 855 855 854 854 854 852 855 866 877 881 881 882 881 880 879 879 879 879 879 878 878 877 877 877 875 873 872 871 870 868 866 869 875 880 884 887 889 894 898 900 902 908 912 914 914 913 914 914 913 911 907 903 904 907 905 900 896 894 894 893 892 893 893 892 890 889 887 886 882 878 878
862 862 861 861 860 859 859 858 857 856 856 856 856 856 856 856 856 855 855 855 855 854 858 868 876 878 879 881 881 880 879 880 880 879 879 879 878 877 878 877 875 873 872 870 870 870 870 876 884 888 889 890 893 899 903 902 904 911 917 917 916 918 919 918 917 917 913 909 909 911 909 903 898 896 896 894 894 894 893 892 890 888 887 886 882 877 873
862 862 861 861 860 860 859 858 857 857 856 856 857 857 856 857 857 856 855 855 855 858 863 870 874 877 879 881 882 882 881 880 880 880 880 879 879 878 878 876 875 875 874 872 872 875 880 884 888 890 891 891 894 899 903 904 907 914 919 919 919 920 921 919 918 918 915 911 911 911 908 904 900 898 897 897 895 894 893 892 890 888 887 886 884 880 875
863 862 862 861 861 861 860 859 858 857 856 856 856 856 856 856 857 857 857 857 857 858 861 865 870 877 882 883 883 883 882 882 882 881 881 880 880 879 878 878 877 876 874 874 876 880 884 886 889 893 895 893 894 900 907 908 911 915 918 920 920 920 920 919 919 917 916 914 913 912 909 905 901 898 898 898 898 896 894 893 891 890 888 886 884 882 878
863 862 862 862 861 861 861 860 859 858 857 857 857 856 855 855 857 858 858 858 858 858 860 865 874 879 881 883 884 883 883 883 882 882 882 881 881 880 879 879 878 877 876 878 880 883 886 889 892 896 898 896 897 905 912 916 917 918 919 921 922 921 920 919 918 918 917 915 913 912 910 906 902 900 899 898 898 897 895 894 893 891 889 888 886 883 880
863 863 862 862 862 862 861 861 861 859 858 858 858 858 858 857 858 858 858 858 859 859 858 864 872 876 876 880 884 883 883 883 882 882 882 882 881 881 881 880 880 880 880 881 883 887 891 894 897 900 901 901 903 909 914 918 923 924 922 922 921 920 920 920 919 919 917 915 914 911 908 906 906 905 902 899 898 897 896 894 893 891 889 888 886 883 881
862 862 862 862 862 862 862 862 862 861 861 860 860 860 859 858 858 859 858 858 860 859 858 862 868 871 874 879 883 883 883 883 881 880 881 883 883 882 881 882 882 882 883 884 886 890 894 895 897 902 904 904 906 910 915 921 925 925 923 922 921 920 920 920 920 919 918 917 916 913 909 907 907 907 905 903 901 899 897 895 892 891 890 888 885 883 880
862 862 862 862 862 862 862 862 862 862 862 862 862 862 861 860 860 860 859 860 860 860 862 866 868 870 873 876 879 882 883 881 880 879 881 883 884 883 881 881 881 883 886 888 889 891 895 896 898 903 907 909 910 913 919 924 925 924 923 922 921 920 921 921 920 919 918 917 916 914 911 909 908 906 905 904 902 900 898 896 893 890 889 887 885 883 879
862 862 861 862 862 862 862 863 862 863 863 863 864 864 863 862 862 861 860 860 860 861 868 873 873 875 877 874 873 880 885 883 882 884 884 884 885 885 882 881 882 887 890 891 891 894 897 899 900 905 910 915 918 923 925 926 925 924 923 922 921 922 923 922 921 920 919 917 915 913 912 910 908 907 905 903 901 898 897 895 893 891 889 886 884 882 879
862 862 862 862 862 862 863 863 863 864 864 864 864 865 864 864 864 863 863 862 861 864 872 878 880 885 886 881 877 882 886 884 883 885 886 884 885 886 883 881 885 892 895 893 894 899 901 901 904 909 915 920 925 928 928 926 926 925 923 922 923 924 924 923 922 920 919 917 915 913 912 910 909 907 904 902 900 898 896 894 892 890 888 886 883 881 878
861 861 862 862 862 863 863 864 864 864 864 865 866 866 865 865 865 864 864 866 867 870 874 879 885 893 894 889 886 887 886 883 883 884 885 886 886 887 885 884 888 894 895 895 899 903 903 904 908 914 919 923 926 927 927 926 926 925 924 923 925 925 925 924 923 921 919 917 915 914 913 912 911 908 905 901 898 896 895 893 891 890 888 885 883 880 878
862 862 862 862 863 863 863 864 865 864 865 866 866 865 866 866 865 866 870 872 874 877 881 884 891 897 896 892 890 889 888 887 885 883 885 889 888 886 885 887 891 894 896 899 904 906 906 909 915 920 923 925 925 926 927 927 926 925 924 925 926 926 925 924 922 921 919 917 916 915 915 913 912 911 908 904 901 899 896 894 893 891 889 887 884 882 878
862 862 863 862 863 864 864 865 865 865 866 866 866 866 868 867 866 870 876 879 880 884 887 890 895 899 897 893 892 893 894 893 887 883 886 889 888 886 886 889 892 894 896 899 904 905 906 912 918 921 922 924 925 925 926 926 925 925 925 925 926 926 925 924 923 922 920 919 917 917 917 915 913 911 908 906 904 901 899 897 895 892 890 888 886 882 879
862 863 863 863 864 865 865 866 866 866 866 867 866 867 869 871 875 880 881 880 885 892 894 896 899 902 901 900 897 896 897 896 892 890 891 891 891 891 889 889 893 896 895 898 904 905 905 910 916 917 918 921 924 926 926 926 925 925 925 926 926 926 925 924 923 922 920 919 919 918 917 917 916 913 909 907 905 902 900 898 896 893 891 889 886 883 879
863 862 862 863 865 865 866 867 867 867 867 867 868 873 877 879 885 891 887 882 888 899 903 902 901 900 901 903 901 898 898 900 900 899 897 894 893 894 891 891 895 896 895 901 908 906 904 910 915 915 916 921 925 926 926 926 925 924 925 926 926 925 924 924 922 921 920 919 918 918 917 916 915 913 910 908 906 903 900 898 895 893 892 889 886 883 880
863 863 863 865 866 866 866 867 867 868 869 867 870 881 889 889 888 891 892 892 898 905 905 904 904 903 903 904 903 901 901 902 901 899 896 893 894 895 893 893 893 892 895 907 911 905 905 914 919 916 916 922 926 926 926 925 925 924 925 926 926 925 924 923 922 921 920 919 918 918 917 915 914 912 910 908 906 903 901 898 895 893 891 889 886 883 880
864 864 864 864 866 866 867 869 871 874 878 879 877 879 887 892 894 897 899 902 907 908 906 906 907 905 902 904 904 903 902 902 901 900 897 897 898 897 893 892 893 896 904 912 909 902 906 917 919 915 918 923 925 926 926 926 925 925 925 926 926 925 924 923 922 920 920 919 918 917 916 914 913 911 909 907 905 903 900 898 895 892 890 887 885 882 879
865 866 864 866 869 869 868 871 875 877 881 889 890 886 885 890 895 898 899 902 907 910 910 911 911 907 904 904 904 903 902 902 900 898 899 901 901 897 892 894 900 905 909 911 909 910 917 920 917 916 922 925 925 926 927 925 924 925 926 926 925 925 923 922 921 920 919 919 918 917 915 914 913 911 908 906 905 902 899 896 894 892 889 886 883 881 878
865 866 864 866 871 873 872 875 882 884 887 895 900 897 893 894 895 898 904 910 912 912 912 914 915 913 908 905 904 904 905 902 897 899 905 905 899 896 898 904 909 910 909 909 911 915 918 916 914 918 924 927 926 926 927 925 925 926 926 925 925 925 923 922 921 920 919 919 917 916 914 913 912 910 907 905 903 901 898 895 893 891 889 886 883 880 877
866 870 868 866 874 883 883 882 887 892 897 902 904 902 901 903 904 907 913 917 915 913 913 916 917 914 909 904 903 904 906 902 899 905 911 905 896 900 909 912 909 908 906 905 908 911 911 911 915 921 926 927 927 927 926 925 925 926 926 926 925 924 922 921 921 920 919 918 917 915 914 913 912 910 907 904 902 900 898 895 893 891 888 885 883 879 876
868 874 871 868 877 889 892 892 897 902 906 908 909 910 911 913 913 915 917 918 917 916 917 918 917 914 912 909 904 903 906 906 903 906 910 905 901 908 913 908 906 912 912 906 906 912 913 914 918 924 927 927 927 927 926 925 926 927 927 926 925 923 922 921 920 920 919 918 917 915 914 912 911 909 907 904 901 899 897 894 892 890 887 885 882 879 876
872 875 873 876 886 895 896 900 907 911 912 913 915 917 918 917 915 914 917 919 919 917 916 917 914 911 910 910 906 903 905 904 901 905 912 909 903 904 904 900 905 918 921 914 911 913 914 917 923 927 928 928 927 926 925 925 926 927 926 925 924 923 922 921 920 920 919 918 916 914 913 912 910 908 906 904 900 898 896 894 891 888 886 884 881 878 875
876 879 883 892 901 906 908 909 909 907 910 915 917 918 917 915 913 914 918 920 919 917 919 919 914 908 907 908 906 904 906 906 904 907 911 908 907 911 912 906 904 911 917 917 916 915 917 921 926 927 927 927 927 926 926 926 926 927 926 925 924 923 922 921 921 920 918 917 916 914 912 911 909 907 905 903 900 897 895 892 890 887 884 882 879 876 873
882 887 896 902 902 902 909 912 906 901 905 911 913 914 915 914 913 916 918 919 919 919 919 917 914 911 910 908 902 901 907 915 916 910 905 907 917 925 921 909 905 908 913 916 918 918 920 924 926 926 926 927 927 925 926 926 926 926 925 924 923 923 921 921 920 919 917 916 915 913 912 910 908 906 904 902 899 896 893 891 889 886 882 879 877 874 871
888 894 906 910 905 902 906 907 901 899 904 908 910 913 916 915 914 917 919 920 920 916 911 911 913 911 905 899 896 899 908 919 922 916 911 917 928 927 913 903 907 912 914 915 919 921 922 925 926 926 926 926 925 925 926 926 925 925 924 923 922 922 921 920 920 918 916 915 914 912 911 909 907 905 903 901 898 896 892 889 887 885 882 878 876 874 871
894 898 908 914 913 911 910 908 905 907 910 912 913 916 917 916 916 919 920 919 916 911 908 912 913 905 897 899 907 912 912 913 915 913 913 920 926 922 911 908 913 916 916 918 921 922 923 925 926 925 925 926 925 925 926 925 924 924 923 922 921 921 920 919 918 917 915 914 912 911 909 908 905 904 902 899 897 895 893 889 886 885 882 879 876 874 871
Wind_Speed
9 10 12 12 12 11 11 13 14 15 14 12 12 8 2 2 2 2 9 9 3 3 1 1 1 1 2 0 1 1 1 0 0 1 2 1 1 1 2 1 1 1 2 2 2 1 3 3 1 2 1 2 3 2 3 4 2 3 2 1 2 1 3 4 7 7 1 6 5 3 2 1 2 3 2 1 2 2 3 5 4 4 6 5 6 9 3
10 11 12 11 11 11 11 12 13 13 13 14 11 4 1 2 1 1 9 9 2 2 2 1 2 2 1 1 1 1 0 0 1 1 1 0 1 2 1 0 1 1 1 3 3 2 2 2 1 2 2 2 2 2 3 3 2 2 2 2 2 2 3 3 6 7 2 1 1 2 1 1 2 0 1 1 2 3 1 3 2 5 8 7 8 9 3
11 11 11 10 11 11 11 12 11 10 11 13 10 3 1 1 1 1 5 8 4 0 2 2 2 2 0 1 1 0 1 1 1 1 1 1 1 2 1 1 1 1 1 2 3 2 2 1 1 1 1 1 2 2 3 3 3 4 4 5 3 3 4 3 5 6 6 5 4 2 2 3 4 1 2 2 1 1 2 5 5 5 5 6 8 10 8
11 11 11 11 11 12 11 10 10 8 9 11 7 3 1 2 1 0 1 4 5 2 1 2 2 1 2 1 1 1 1 2 1 1 1 0 1 2 1 1 2 2 2 4 4 3 3 1 2 2 2 1 2 2 2 1 2 4 5 4 3 3 4 4 6 7 7 8 9 6 5 7 9 7 3 1 3 2 2 4 5 6 7 7 8 10 13
11 11 11 11 11 11 10 9 8 7 7 9 6 2 2 1 1 2 1 1 2 2 2 3 2 1 2 1 1 2 2 1 2 1 1 1 0 2 1 1 3 1 1 4 3 1 3 2 1 2 2 1 2 2 1 0 0 2 3 2 1 3 4 2 4 7 9 11 13 11 9 9 11 10 8 3 2 4 3 6 7 8 8 7 7 12 16
11 11 12 11 10 10 9 8 7 6 6 7 4 1 2 1 0 1 1 1 1 1 2 3 2 1 2 1 1 1 2 2 1 0 0 1 1 2 1 2 4 3 3 4 3 3 3 3 1 0 1 2 0 2 2 2 1 2 1 1 1 4 4 1 1 6 10 13 14 13 9 8 7 7 8 7 2 3 4 7 9 8 7 9 13 17 18
11 11 11 11 10 9 8 7 7 6 5 5 3 1 1 1 1 1 1 1 2 2 2 2 1 0 1 0 1 1 3 2 2 1 1 1 2 2 2 0 0 2 2 3 4 5 4 2 1 1 1 1 2 2 0 2 1 1 1 2 1 3 2 2 1 6 11 11 9 6 4 4 5 4 5 7 5 2 3 6 9 9 9 12 16 19 18
11 11 11 10 10 9 8 7 5 5 4 2 1 1 1 0 0 1 0 1 2 1 1 2 2 1 0 1 1 1 3 2 2 1 2 2 1 2 2 3 2 1 2 4 5 4 5 3 2 1 1 1 1 1 1 1 1 1 0 1 0 1 1 2 1 7 8 2 2 2 3 2 3 4 7 8 7 6 4 5 8 9 11 14 17 18 15
10 10 10 9 9 8 8 6 4 4 3 0 0 0 1 1 1 1 1 1 1 1 1 2 2 0 0 1 1 0 1 3 3 1 0 2 2 0 3 4 2 1 2 4 4 5 5 4 3 2 2 3 2 1 2 3 1 1 1 0 0 1 2 0 1 7 5 3 3 4 1 3 4 6 10 11 9 8 6 6 9 11 13 16 15 12 9
9 10 10 10 9 9 8 7 4 3 2 1 1 0 2 1 1 0 2 1 1 1 1 1 2 1 1 2 1 1 2 3 2 2 1 2 3 2 3 5 3 3 2 1 2 4 4 3 3 2 3 3 2 1 2 3 3 1 1 1 0 1 3 3 2 5 5 1 5 11 4 4 4 5 9 10 9 9 10 10 12 13 13 13 11 8 11
9 10 10 10 10 9 8 7 5 3 3 3 1 2 4 2 0 1 2 1 1 1 2 1 1 1 1 1 0 1 2 1 1 2 1 2 3 2 3 3 4 3 2 2 1 2 3 2 1 1 1 1 0 1 2 3 3 3 1 1 0 1 3 4 2 3 6 7 11 12 6 2 2 6 9 11 10 11 13 13 13 14 12 10 9 11 16
10 10 10 10 9 8 7 7 5 3 3 5 3 2 5 3 0 0 2 2 1 0 1 1 2 2 2 2 2 2 2 2 2 2 3 2 2 1 2 3 3 1 1 0 1 2 1 1 2 2 3 3 4 4 4 5 5 3 2 1 1 1 2 3 1 2 6 7 9 8 4 1 3 4 10 13 10 12 16 13 11 13 12 11 12 15 18
10 10 9 9 9 8 7 6 4 3 3 6 4 3 5 4 1 1 1 2 1 0 1 1 1 1 1 1 2 1 2 2 1 0 2 2 1 0 1 1 2 1 1 1 2 3 3 3 3 3 3 3 4 4 5 7 6 4 3 2 2 2 3 2 2 3 4 4 5 5 3 4 4 3 11 14 11 14 17 14 11 11 11 12 15 17 19
9 9 9 9 8 7 6 5 4 2 3 6 6 4 5 4 0 1 1 2 1 2 1 1 1 1 1 1 2 1 1 2 1 1 0 1 2 1 1 1 1 2 1 2 3 3 3 2 2 2 3 4 2 2 4 5 6 5 4 3 2 2 3 3 2 1 2 4 5 5 3 2 5 7 10 11 11 12 13 13 10 8 12 15 18 20 22
8 9 9 8 8 7 6 5 3 1 3 7 6 4 5 4 1 1 1 2 1 1 0 2 3 3 3 1 1 2 1 2 1 1 1 1 1 1 2 1 0 0 2 2 2 2 2 2 3 3 1 1 1 0 3 4 4 5 4 2 2 2 2 3 3 1 2 4 5 5 6 3 4 9 11 11 11 13 13 11 6 8 17 21 22 23 24
9 9 9 8 8 7 6 5 4 4 4 7 6 4 3 3 2 2 1 2 2 0 2 4 5 4 2 1 1 2 2 2 1 1 2 2 2 1 2 2 1 1 2 3 2 2 2 2 3 4 2 2 2 2 1 1 2 3 2 2 2 1 1 2 4 3 3 4 5 5 4 2 7 12 14 12 13 16 13 8 4 10 21 23 22 24 25
9 9 9 8 8 8 7 7 7 7 6 5 5 3 2 3 2 2 1 1 1 2 3 6 5 3 2 0 1 1 2 2 2 2 0 1 1 1 2 3 2 3 3 3 2 2 2 2 2 3 2 2 2 4 3 2 2 2 1 2 3 3 2 2 2 3 3 3 4 5 2 4 10 14 14 14 16 15 11 7 5 15 22 21 21 23 22
8 9 9 9 9 10 10 10 10 9 8 6 5 3 2 3 2 1 1 1 1 2 3 6 4 1 1 2 1 2 2 2 2 2 1 1 1 1 1 1 2 3 2 2 2 2 3 2 1 3 2 1 1 3 3 3 4 4 3 2 2 3 3 2 2 4 5 3 4 5 1 4 12 16 16 17 16 10 6 7 10 16 22 22 21 20 18
8 9 10 10 11 11 10 10 9 8 6 5 4 3 2 2 2 1 1 1 1 2 2 4 3 2 3 2 3 2 1 2 2 2 2 0 1 1 0 1 1 1 2 2 2 1 3 1 1 2 3 0 1 2 3 3 3 4 4 3 2 3 4 2 2 4 5 3 5 6 1 5 14 17 14 13 10 4 4 9 13 17 20 21 20 17 16
8 9 10 11 11 11 11 10 8 7 6 5 4 3 3 2 2 2 2 2 3 4 3 3 3 3 4 2 1 1 1 1 2 3 3 2 1 1 1 0 1 1 1 2 1 1 2 2 1 1 2 2 1 1 2 4 5 6 4 3 4 5 4 3 4 5 4 4 5 5 2 7 17 17 11 8 6 4 8 12 17 19 19 18 17 16 16
8 9 9 10 10 10 10 10 8 7 6 5 4 5 5 4 4 3 3 3 4 3 2 1 2 3 3 4 4 4 3 3 3 3 3 2 1 1 2 2 2 2 2 2 2 1 1 1 1 0 1 1 1 0 1 4 5 6 5 2 3 4 3 3 4 4 4 4 5 5 6 9 15 14 10 8 7 7 11 14 17 18 17 15 14 15 18
8 9 9 9 10 10 10 10 9 8 7 5 4 5 6 8 7 4 4 8 10 8 5 4 4 5 5 5 5 4 4 4 3 2 3 2 1 1 2 2 2 2 2 2 2 1 0 1 1 1 1 1 2 2 2 1 2 4 5 3 2 5 6 5 4 3 6 6 7 7 8 10 13 12 10 10 10 12 15 16 15 15 14 13 13 16 19
8 8 9 10 11 11 10 9 8 8 7 6 5 5 7 10 11 9 10 15 15 10 6 5 4 5 6 5 5 5 3 3 2 2 2 2 1 0 1 2 2 1 1 2 2 2 1 1 1 1 1 2 1 1 3 4 2 2 5 4 3 6 8 6 4 5 8 7 5 7 9 12 15 13 9 10 12 14 16 15 14 13 13 12 13 16 19
7 8 9 10 11 11 10 9 7 6 6 6 5 6 8 11 11 9 8 9 7 4 3 3 1 2 3 2 3 4 3 3 3 2 1 2 2 0 2 3 2 1 0 2 2 2 1 1 1 0 1 1 2 1 3 5 3 2 3 4 3 5 9 7 4 6 8 6 5 11 13 14 16 12 9 13 15 15 14 13 13 14 14 14 16 18 19
6 6 7 9 11 11 10 9 7 6 5 5 5 6 8 8 5 3 2 2 2 2 2 3 2 2 3 3 3 4 4 4 3 2 1 1 3 2 2 3 3 1 1 2 2 2 0 1 1 1 2 1 3 3 3 4 3 3 4 4 3 4 7 7 7 7 8 8 9 14 14 12 11 9 11 14 16 15 14 14 15 17 18 19 21 20 18
5 4 4 7 9 10 10 10 8 6 5 5 5 5 5 3 0 1 1 1 1 1 2 3 2 2 2 3 3 4 5 4 3 2 2 1 2 2 3 4 2 1 2 2 2 1 1 2 1 2 3 2 3 4 5 5 6 5 6 5 4 6 6 7 9 8 7 8 11 14 12 9 8 12 15 15 15 15 15 15 17 17 18 20 22 21 20
3 2 3 6 8 8 10 11 9 6 4 4 5 4 3 1 1 2 1 1 1 0 2 3 2 1 2 3 5 6 5 4 3 2 3 2 1 1 2 4 2 2 2 1 0 1 1 3 4 3 3 3 3 4 5 5 5 5 6 6 6 6 6 7 8 6 6 8 10 12 11 9 11 16 18 17 16 16 14 16 16 16 17 21 22 23 24
3 2 4 6 6 7 9 10 10 7 3 3 6 7 7 5 4 4 3 1 1 1 3 4 4 3 3 2 7 9 6 4 3 3 3 3 2 1 2 4 3 1 1 0 1 2 3 4 3 2 2 2 2 3 3 3 3 4 5 7 7 6 7 8 8 6 9 11 11 11 11 12 14 17 17 17 18 17 15 17 17 17 22 26 24 22 23
3 3 4 5 5 6 8 9 9 8 3 2 4 4 5 6 7 7 6 6 8 7 5 4 4 2 1 2 6 7 6 5 4 3 3 3 3 3 3 3 3 1 1 2 3 4 5 4 3 3 2 2 1 3 2 2 3 4 6 8 8 7 7 9 9 9 11 11 11 12 13 14 16 17 15 17 20 19 17 19 20 22 27 30 27 23 22
3 3 4 4 4 6 7 8 9 8 3 2 3 1 1 2 5 7 6 8 9 7 3 2 3 2 1 1 3 4 5 5 5 4 4 4 4 5 4 4 3 3 2 4 5 4 4 3 3 4 4 4 1 2 2 3 2 4 7 9 8 8 8 8 8 9 10 10 12 15 16 16 17 17 16 18 21 20 18 19 23 27 29 29 27 25 23
4 4 4 4 4 5 6 7 9 9 7 3 0 1 1 1 4 4 3 4 4 3 3 3 3 2 2 1 2 3 4 3 2 3 4 4 4 6 6 4 4 5 4 5 5 4 3 3 3 4 5 6 4 3 3 2 2 4 9 10 9 9 9 8 8 10 12 13 14 15 14 13 13 15 16 19 23 22 20 23 26 28 28 27 25 23 22
4 4 4 4 4 4 4 7 9 13 15 13 8 4 1 2 2 3 3 3 3 2 2 2 2 1 1 2 1 3 4 1 1 0 2 3 3 4 5 5 4 6 5 3 3 4 3 4 4 4 4 5 4 3 3 4 3 6 10 10 9 9 9 9 10 12 13 15 15 14 11 10 11 13 15 19 23 23 24 27 28 26 25 25 23 21 21
4 4 4 3 3 3 3 6 8 12 16 18 17 15 11 5 2 3 4 4 4 3 2 1 2 1 1 3 2 4 4 1 1 1 1 3 3 2 2 3 3 4 5 4 2 3 2 3 5 5 4 4 3 3 4 5 6 8 10 11 10 10 10 10 10 11 13 15 14 12 11 12 14 16 17 19 22 24 26 27 27 24 23 21 19 20 21
4 4 2 1 2 2 3 4 6 6 8 11 13 17 19 16 11 6 3 3 3 4 4 2 1 1 1 2 3 3 5 2 2 2 2 3 3 2 0 1 1 2 5 4 2 3 2 2 3 4 3 3 3 3 3 6 9 10 10 11 11 10 10 10 10 10 12 14 14 12 13 16 17 17 17 19 21 24 25 25 23 22 19 16 16 20 21
3 2 1 1 2 3 4 4 5 4 5 6 6 8 13 18 20 17 12 6 2 2 3 3 2 2 2 1 1 3 5 2 2 2 2 1 2 2 1 1 2 2 3 2 2 3 2 2 2 2 2 2 3 3 3 7 11 11 11 10 10 10 10 10 11 10 12 15 14 13 14 16 15 14 15 18 22 25 25 23 22 20 16 13 17 21 21
1 1 1 2 4 5 5 4 4 2 2 3 4 5 8 12 15 19 20 17 11 6 2 1 2 3 3 2 1 4 5 2 0 1 1 0 1 1 1 1 2 2 1 1 2 3 2 2 1 2 3 2 2 3 4 7 10 12 12 10 9 9 9 11 12 12 13 14 13 12 13 14 13 13 15 17 21 23 22 20 19 18 15 14 17 20 21
1 2 3 5 6 4 3 3 3 2 4 6 6 6 6 5 6 9 13 15 15 11 6 2 3 3 2 2 2 4 5 2 1 1 1 0 1 1 1 1 1 1 1 2 3 3 3 3 2 2 3 2 3 3 4 6 8 10 10 8 8 8 9 12 13 12 12 12 11 10 11 11 12 14 16 17 19 20 19 17 18 18 17 17 20 21 22
4 4 5 5 3 1 1 2 2 4 7 7 5 3 2 3 2 4 5 6 7 8 6 3 3 2 2 2 2 5 4 2 2 2 2 1 0 0 0 1 1 1 1 2 2 1 1 3 3 3 3 3 4 3 5 6 7 8 8 7 8 10 12 13 13 12 11 10 10 10 10 11 13 14 14 14 17 18 18 19 20 20 20 21 22 23 24
4 4 3 2 1 1 1 2 3 6 6 3 1 1 2 3 2 1 2 2 2 3 3 3 3 3 3 3 3 4 4 3 2 2 2 1 1 1 1 1 1 1 1 2 1 1 0 2 2 2 2 3 3 3 6 6 7 9 7 6 9 13 14 14 13 11 10 10 10 11 12 14 16 15 13 13 15 16 17 19 20 20 21 23 23 24 25
4 3 2 1 2 3 3 4 4 4 2 1 2 1 1 3 3 2 1 1 2 2 3 2 1 1 2 2 2 2 4 3 2 2 2 1 1 1 1 0 1 0 1 1 1 1 1 1 1 1 1 2 2 4 6 6 8 9 7 7 12 15 15 13 12 13 12 10 10 13 16 17 17 15 14 15 15 15 16 18 19 20 22 23 23 23 24
2 1 2 3 5 6 6 5 3 1 0 1 3 2 2 2 1 1 1 2 2 2 1 1 2 1 1 1 2 2 4 4 1 1 1 1 1 0 1 0 1 1 1 2 1 1 0 1 0 1 1 3 3 4 6 7 9 9 6 8 14 16 14 13 13 13 11 10 12 16 19 18 16 15 16 16 16 17 18 20 21 22 23 22 22 23 23
5 6 7 8 8 7 5 5 5 4 1 1 2 2 1 1 1 1 2 2 2 1 1 1 2 2 2 2 2 1 1 2 1 1 1 1 1 1 0 0 0 0 1 1 1 1 1 1 0 1 2 4 3 5 6 8 9 8 6 10 15 15 13 13 13 12 10 11 14 17 18 16 15 16 17 16 17 19 21 22 24 24 22 21 22 22 22
9 8 7 6 5 3 3 3 4 3 2 2 2 2 2 1 1 1 1 1 0 1 1 1 2 3 2 1 1 2 1 1 1 1 1 1 1 1 0 1 1 0 1 1 1 0 1 1 0 1 3 3 3 5 7 8 9 7 7 11 15 14 12 12 12 10 10 12 15 17 16 14 14 16 18 18 18 20 22 23 24 22 21 22 22 22 21
5 3 3 2 2 3 3 2 2 2 2 2 2 1 2 2 1 0 1 1 1 1 1 2 3 3 1 1 1 1 1 1 1 1 0 1 1 0 1 2 1 1 0 0 1 1 1 1 1 1 3 3 4 6 7 8 7 5 7 12 14 13 12 12 11 9 11 15 16 16 14 12 13 16 18 18 18 20 22 23 22 20 21 22 22 21 22
1 1 3 2 3 3 2 1 2 2 2 1 1 0 1 2 2 2 2 1 1 1 1 1 2 3 2 1 0 0 0 1 0 0 1 1 1 1 2 1 1 1 0 0 0 0 1 1 1 2 4 5 5 6 8 8 6 5 8 12 13 12 12 12 10 10 13 17 17 15 13 13 14 16 18 19 17 18 20 22 20 20 21 21 21 21 23
2 1 2 3 2 2 1 1 1 1 1 0 1 1 1 2 2 2 1 1 1 2 1 1 2 2 2 1 0 1 0 1 1 1 1 1 1 2 1 0 1 1 1 0 1 1 1 2 2 3 4 5 5 6 7 7 5 7 9 10 11 13 13 10 10 13 15 17 16 14 12 12 14 16 18 19 18 17 18 19 19 19 20 20 19 21 23
3 1 1 3 2 1 1 1 2 2 1 1 1 2 2 2 2 1 0 1 1 2 1 1 2 2 1 1 1 0 1 1 1 1 1 1 0 1 0 0 0 1 1 2 1 1 2 3 3 3 4 5 5 6 7 6 5 8 10 10 11 12 12 10 11 14 16 16 15 13 12 13 15 15 15 17 18 18 18 19 20 20 19 19 21 22 22
2 1 2 2 1 1 1 2 1 0 1 1 1 1 1 1 1 0 1 0 1 2 1 1 1 1 1 1 1 1 1 1 1 1 1 0 0 0 1 1 1 1 2 1 1 2 3 3 3 3 4 4 4 5 6 5 6 8 10 10 11 11 11 10 12 14 15 15 13 11 12 13 14 13 14 16 18 18 17 19 21 22 21 20 22 24 23
6 3 3 3 1 1 1 1 0 0 1 1 1 0 0 1 1 1 2 0 1 1 1 1 2 1 0 0 0 0 1 1 1 1 1 1 1 0 0 1 2 1 1 1 1 3 4 2 2 3 3 3 4 5 5 5 6 9 10 10 10 10 10 10 12 14 15 13 11 11 13 13 13 13 13 15 17 18 18 19 21 22 22 22 23 24 24
7 4 3 1 1 1 1 1 1 0 1 1 1 0 0 1 1 1 1 0 1 0 1 1 1 1 1 0 1 1 1 1 1 1 1 1 1 1 1 2 2 1 0 0 2 3 3 2 2 3 3 3 5 5 5 5 7 9 9 9 9 9 10 10 11 13 14 12 10 11 13 12 11 12 14 14 16 19 21 22 21 21 24 27 27 25 24
4 4 2 0 1 1 1 0 0 1 0 1 1 1 1 1 1 1 1 1 1 1 1 1 0 0 0 0 1 1 0 0 0 0 1 1 2 2 2 2 1 0 1 2 2 3 2 2 2 3 3 4 5 5 4 6 8 8 8 9 10 9 8 8 10 12 12 11 10 11 12 12 12 14 15 16 16 17 19 22 22 22 25 29 28 24 23
2 2 1 0 1 1 1 0 1 1 1 1 1 1 1 1 1 1 0 1 1 1 0 1 0 1 0 1 1 0 0 1 0 0 1 1 2 2 2 1 1 1 1 2 2 2 1 2 2 2 3 4 5 4 5 7 8 7 8 11 11 6 4 7 12 13 12 10 10 11 12 13 14 16 16 15 14 13 15 18 20 22 24 26 25 23 23
Wind_Direction
339 341 343 345 344 340 340 345 348 349 356 0 351 338 296 306 320 350 352 352 319 275 326 139 261 50 72 54 111 65 322 232 308 196 197 226 249 234 240 254 275 297 337 320 304 305 283 265 286 315 330 38 42 25 342 320 292 275 282 85 68 311 262 267 280 276 162 100 100 86 54 298 249 234 229 274 302 319 302 297 330 313 275 273 273 268 283
338 343 342 337 334 336 340 344 348 350 358 3 355 336 238 336 293 312 355 358 319 259 4 4 346 52 119 217 123 125 256 322 291 257 208 230 281 276 277 341 289 328 0 296 289 337 308 281 15 358 328 35 73 36 354 328 332 9 0 4 16 294 265 292 302 299 298 115 108 106 129 250 275 252 121 88 50 62 0 286 288 277 262 252 260 270 289
335 337 334 331 335 339 340 343 348 351 358 4 1 342 226 295 234 203 2 18 36 41 17 346 336 28 289 285 57 150 175 86 335 327 343 324 307 295 321 34 308 297 311 268 264 266 270 299 40 21 311 51 114 74 15 334 349 33 10 336 321 286 291 298 298 307 312 314 328 349 328 313 311 309 116 108 110 135 274 282 269 264 271 265 260 269 292
329 330 332 337 339 339 339 342 347 352 358 3 3 352 302 296 338 284 357 39 52 81 66 336 324 3 322 303 67 321 310 119 144 274 269 119 289 277 289 15 267 244 255 273 263 226 217 262 334 313 299 16 101 90 29 342 2 15 345 314 296 286 284 269 267 276 286 300 311 322 326 311 302 307 320 140 146 163 277 271 266 296 311 286 271 291 306
325 329 335 340 339 338 340 343 348 353 356 358 359 9 358 303 326 6 333 24 56 96 82 11 5 12 322 332 67 337 318 106 152 217 252 73 284 264 234 220 253 249 297 295 290 233 211 216 293 305 284 322 84 136 152 108 352 331 313 281 282 276 269 278 277 266 273 289 297 302 306 297 297 313 323 317 144 146 208 247 272 313 317 288 305 326 318
326 333 337 338 333 332 337 343 352 351 345 352 349 325 5 353 47 42 329 308 20 38 27 14 18 23 325 336 70 315 312 329 325 211 142 151 213 250 215 202 247 272 310 312 312 306 275 228 186 319 296 321 336 172 144 106 172 248 232 122 353 281 269 31 11 272 277 278 279 287 291 291 300 314 320 325 337 164 210 254 280 302 297 287 310 319 309
331 334 333 333 329 329 333 333 341 341 333 343 341 321 33 43 104 91 311 328 32 26 344 325 306 344 342 237 149 297 303 330 7 43 224 201 166 226 283 47 211 280 292 290 295 318 321 289 248 25 355 309 301 285 56 106 161 239 184 114 15 283 269 97 173 278 279 270 272 283 273 288 314 330 345 347 343 311 257 272 292 298 287 290 304 307 301
332 333 333 335 334 335 337 330 326 325 323 329 335 0 41 328 39 87 195 106 74 65 266 274 266 180 245 250 114 286 291 330 10 37 261 290 125 172 290 4 37 333 282 260 276 337 356 324 318 5 324 293 309 318 353 49 104 224 162 96 62 272 327 92 199 287 293 252 166 196 208 274 338 31 28 7 359 359 337 302 312 311 300 301 306 303 299
333 335 336 338 337 337 338 335 323 307 310 41 108 41 66 26 20 12 263 174 121 228 231 258 281 214 154 357 49 278 309 0 350 343 35 344 6 93 321 340 339 239 241 258 289 9 13 333 331 348 302 306 333 335 345 350 328 180 151 97 196 238 282 332 272 300 310 116 147 262 237 110 89 51 26 8 360 357 343 327 327 321 313 312 309 305 312
336 336 336 335 333 331 329 329 326 297 252 151 354 170 147 128 70 52 294 273 148 268 273 244 291 4 52 21 23 317 2 34 343 321 91 73 30 13 333 326 305 267 263 301 351 14 2 335 346 340 287 284 307 320 6 1 336 335 145 214 333 333 297 307 326 305 304 28 329 311 304 135 120 58 30 9 0 354 341 333 326 317 314 313 310 320 337
335 333 331 329 325 323 321 320 320 296 231 214 249 171 173 193 71 145 266 272 122 339 302 280 335 30 63 38 8 292 319 25 356 322 348 94 67 12 313 301 294 296 347 36 8 327 323 321 310 289 248 192 104 85 79 63 36 13 356 227 71 25 289 303 333 296 298 325 322 304 280 228 119 85 42 11 6 357 339 327 322 317 317 324 328 335 339
332 329 326 325 323 323 324 320 316 296 231 205 199 189 181 182 159 223 263 297 80 196 284 5 27 8 32 19 318 303 326 2 34 353 331 9 71 25 302 291 292 318 61 83 235 226 248 253 196 151 119 109 103 96 82 70 64 44 20 6 0 261 277 296 317 273 290 314 320 310 320 54 143 110 33 12 3 351 339 327 323 324 330 349 350 339 339
331 330 329 331 332 331 332 330 324 300 225 195 189 193 177 168 162 319 282 301 33 83 307 17 91 343 342 323 289 311 41 41 49 9 309 323 346 33 25 313 314 19 59 245 226 221 241 231 195 158 134 140 127 102 82 65 57 56 51 25 338 300 297 300 290 286 295 314 327 328 11 89 112 36 15 8 355 352 346 332 328 341 357 6 353 338 338
340 341 341 342 342 341 344 344 339 322 199 185 184 185 169 162 179 351 278 291 20 75 310 286 112 75 329 283 279 296 128 149 168 163 119 338 311 326 36 27 13 36 342 270 226 235 269 271 242 228 180 169 164 127 109 81 51 45 51 36 344 304 303 314 316 339 340 319 314 299 253 142 74 29 9 4 353 348 337 313 314 9 22 6 350 339 337
354 356 356 357 359 358 0 3 8 44 164 174 176 175 165 158 118 13 333 298 317 125 104 0 10 356 352 26 339 307 238 171 174 152 130 158 269 340 65 79 108 155 276 270 252 259 282 298 303 306 279 221 315 33 140 129 81 47 36 37 14 325 318 328 317 330 351 311 312 313 282 267 51 20 2 3 348 331 322 295 282 25 16 358 347 339 333
11 13 13 13 16 18 24 36 55 88 135 158 164 168 168 156 112 53 37 333 319 114 53 9 348 328 335 64 78 316 327 352 345 223 160 161 182 138 111 135 169 229 250 256 266 277 274 277 300 313 326 347 342 326 263 160 113 85 79 106 80 19 290 286 288 296 352 330 315 318 305 356 39 7 354 359 342 326 317 278 255 14 5 351 340 332 327
30 32 33 35 39 46 53 62 75 91 108 133 153 160 168 163 132 56 31 347 0 78 34 351 322 287 288 177 120 349 324 333 322 287 281 100 133 154 150 162 189 223 250 275 272 257 277 285 285 295 330 33 351 300 305 348 23 55 111 120 72 35 347 338 331 326 338 325 304 307 320 48 19 357 352 352 337 320 302 274 316 357 349 339 332 327 326
48 49 50 53 57 60 63 69 75 84 93 103 113 110 116 146 135 68 48 352 25 101 44 355 335 320 355 344 343 348 326 305 291 278 280 108 126 127 133 174 214 204 221 290 303 289 298 304 322 320 328 85 321 303 340 8 359 5 359 333 33 26 357 5 15 338 328 311 306 314 340 56 11 357 356 351 336 311 289 300 328 340 334 328 329 327 328
59 59 59 58 60 60 63 67 69 73 77 79 88 90 79 106 125 103 55 3 22 86 49 0 0 28 8 307 267 273 287 279 294 304 309 56 91 63 148 224 290 206 203 270 296 311 311 329 72 329 305 80 60 356 28 28 0 1 0 356 21 5 340 352 14 341 330 312 309 309 265 57 16 359 354 359 354 324 310 321 325 329 326 322 324 327 331
62 62 61 58 59 58 58 59 60 60 62 62 76 83 65 90 144 112 62 77 92 90 67 22 22 30 19 4 334 315 283 269 315 333 342 13 51 295 264 216 15 274 255 295 325 351 326 348 50 311 307 358 25 60 86 80 53 25 21 44 26 346 323 1 12 350 323 307 326 331 314 10 11 2 355 13 20 332 322 327 324 324 323 320 322 329 334
64 65 62 59 58 54 52 52 48 46 54 62 74 74 64 80 109 96 90 117 117 105 88 49 45 50 50 52 42 19 10 13 4 347 343 2 19 313 323 354 3 347 346 336 323 339 5 353 3 298 292 332 5 1 119 125 88 42 38 72 40 7 350 349 359 10 356 319 330 346 332 347 6 3 344 344 351 337 337 334 325 321 324 323 323 327 332
66 66 62 58 56 51 48 46 41 40 45 47 61 83 90 93 91 81 95 97 85 82 101 108 89 78 76 68 53 37 30 27 12 345 325 321 333 340 329 337 16 21 5 319 293 299 67 314 306 296 302 351 67 51 32 127 116 43 32 35 61 50 19 324 294 344 339 294 285 318 338 353 357 345 329 336 346 344 341 333 322 321 325 326 324 325 330
66 68 68 64 58 51 45 41 39 40 41 46 69 103 120 115 103 94 97 96 89 86 104 117 103 84 76 59 39 32 28 21 15 0 334 318 311 100 22 15 29 20 330 332 324 317 335 338 318 328 17 15 31 77 65 55 55 60 43 32 64 58 19 332 286 331 327 291 283 333 352 352 340 330 339 354 347 340 336 330 326 327 327 329 331 330 328
68 76 77 65 51 43 39 39 41 44 48 60 82 108 127 127 116 100 96 104 109 113 114 119 105 66 55 19 4 15 16 12 5 346 321 321 316 41 80 39 358 292 83 43 340 296 331 19 309 319 80 24 342 25 91 72 55 57 40 26 43 47 17 347 324 338 324 296 329 356 353 340 330 333 351 346 333 332 337 336 332 330 329 333 334 331 329
72 84 76 52 37 34 35 36 40 44 52 68 88 112 130 136 123 84 74 106 141 143 111 104 84 21 355 339 354 6 357 356 352 332 315 302 291 305 3 2 342 326 3 358 299 270 325 71 264 92 90 14 346 29 79 75 55 48 49 39 7 350 354 343 331 326 304 291 324 347 341 322 319 337 343 331 327 334 341 339 333 330 330 332 332 332 332
68 81 61 31 25 29 31 31 34 38 49 68 86 116 145 165 237 10 32 44 46 81 103 99 80 8 0 15 13 352 340 348 359 342 336 315 268 286 321 324 313 253 274 305 309 295 42 64 40 53 60 21 13 58 75 78 75 69 64 49 350 320 329 334 326 315 298 302 331 345 335 311 316 333 331 327 333 339 338 335 333 333 335 333 329 330 331
59 56 23 11 16 25 26 23 25 31 45 68 76 87 112 162 329 354 345 317 309 47 100 105 101 96 97 62 12 355 355 6 12 9 3 357 333 292 292 291 280 234 238 254 295 310 66 70 49 40 58 60 60 71 77 87 93 78 56 34 359 341 346 341 329 318 316 327 343 347 333 312 318 328 329 333 339 339 336 336 335 336 340 337 330 328 328
51 24 3 4 11 18 16 14 17 20 36 91 88 74 67 59 45 30 10 324 193 63 69 102 121 139 142 58 7 6 16 26 21 19 21 16 10 344 290 289 293 284 278 294 96 70 65 73 72 69 85 86 75 86 98 106 98 70 37 18 6 0 351 338 329 314 313 325 339 341 324 310 314 322 328 334 337 335 335 336 333 332 338 339 334 330 329
31 15 7 7 10 13 9 11 16 13 9 148 126 79 60 56 49 40 48 94 112 100 89 112 122 117 98 6 7 11 22 41 51 46 25 17 14 355 340 348 3 8 16 50 74 77 69 70 78 76 36 332 19 114 110 70 66 57 30 11 3 356 344 332 322 311 310 320 332 330 318 310 312 319 327 334 335 333 332 333 333 331 334 336 334 330 328
2 359 357 358 4 10 8 10 15 14 19 155 171 204 131 69 42 42 74 110 113 105 99 115 115 108 91 16 11 15 24 43 59 52 28 26 27 13 8 20 17 1 30 65 68 77 85 80 75 68 35 0 17 112 77 30 60 60 27 8 354 345 339 332 327 323 320 321 324 321 313 307 311 320 328 332 334 332 329 331 333 331 331 333 332 329 328
337 334 336 343 352 2 11 24 32 39 55 86 154 288 244 354 7 22 94 128 116 102 94 87 95 128 145 99 15 7 12 26 61 46 26 27 34 26 23 25 16 13 42 75 72 64 69 68 68 69 45 26 41 94 80 51 57 21 5 357 346 340 337 334 332 329 323 320 320 316 308 307 319 327 328 330 334 335 332 331 331 330 331 332 330 327 327
327 326 326 340 358 7 29 48 60 66 69 68 62 48 20 299 341 35 103 127 122 120 102 87 111 156 145 128 81 4 0 349 203 197 25 20 16 21 29 37 43 38 39 63 83 68 60 67 74 72 48 33 56 97 81 54 27 354 349 345 340 338 338 334 330 326 325 327 327 319 312 320 333 330 325 327 333 335 333 331 330 330 330 328 326 326 327
325 326 322 343 15 33 64 83 91 84 71 65 62 58 56 60 72 88 109 108 91 64 24 62 121 101 84 152 138 13 5 345 216 224 58 31 354 335 28 51 63 43 25 24 73 81 75 90 89 78 57 42 69 105 78 43 14 349 342 340 337 337 337 333 328 327 329 330 328 319 316 323 326 325 325 327 329 330 330 329 328 329 330 328 326 327 328
323 325 324 358 34 51 83 109 122 106 75 67 65 59 58 62 65 67 105 125 91 65 51 43 91 60 46 176 161 27 10 353 339 4 52 37 353 325 35 71 80 42 24 25 75 101 96 90 86 86 72 37 41 77 58 16 358 347 340 336 337 340 337 330 329 331 330 328 324 317 316 319 322 326 330 329 327 329 330 329 329 331 332 330 329 330 329
321 328 342 39 74 89 96 108 124 118 86 86 89 68 61 64 61 58 63 69 64 79 60 27 17 43 18 244 172 30 11 354 356 9 19 30 17 7 349 35 65 50 15 3 53 82 74 39 32 73 74 35 40 61 24 351 347 344 338 336 342 345 338 332 332 332 328 326 324 321 323 327 328 331 331 329 328 330 332 331 331 333 331 329 330 331 329
342 43 93 111 111 109 101 92 99 114 103 108 117 100 83 76 66 59 59 57 55 66 85 44 43 39 352 315 349 15 2 351 107 25 326 2 48 19 306 341 71 67 4 7 64 69 46 0 0 78 72 59 74 68 16 347 344 342 338 341 348 347 339 334 331 328 327 327 327 329 333 337 337 334 331 329 329 331 332 331 333 335 333 331 332 332 331
91 108 123 127 120 109 95 66 54 90 127 132 132 117 91 75 66 60 55 51 50 53 55 62 64 42 344 299 339 353 349 351 26 27 21 37 20 0 328 17 86 131 162 65 64 63 44 35 59 82 74 95 116 76 18 354 347 342 340 345 351 346 339 335 331 328 329 330 334 341 343 341 340 337 333 331 332 334 334 335 336 336 334 333 333 333 331
110 113 125 137 133 101 63 50 68 121 129 127 132 117 39 9 33 64 44 28 38 43 41 51 61 27 312 280 348 1 358 342 327 9 39 33 326 349 61 66 77 172 162 72 61 79 64 62 73 81 89 130 133 77 19 357 350 347 346 351 352 345 340 337 336 338 337 335 342 352 351 343 340 338 334 331 331 331 330 330 331 332 332 332 331 329 328
116 119 121 121 96 48 68 104 119 131 133 120 65 43 19 0 6 46 19 2 32 31 20 39 53 12 338 340 24 34 21 336 302 354 32 25 13 15 15 85 91 200 180 107 103 217 202 79 98 110 138 162 141 47 14 358 353 353 356 357 350 343 341 340 341 342 338 337 348 358 355 346 339 334 332 332 330 327 326 327 328 329 331 331 329 327 327
123 120 105 94 86 82 98 119 129 133 128 36 20 38 28 16 21 12 342 18 54 37 11 19 42 22 352 338 332 24 28 9 336 349 5 15 43 0 317 165 91 266 214 93 71 278 264 124 141 180 191 156 102 24 4 355 355 355 357 355 347 342 340 340 339 336 335 339 351 355 351 345 336 329 330 333 329 325 326 326 326 329 331 329 328 327 327
152 111 89 118 124 108 94 88 83 83 137 46 43 37 19 26 46 12 342 22 44 52 37 355 328 355 50 353 307 336 28 35 35 283 305 340 70 336 292 37 68 238 193 74 42 293 240 102 102 320 50 104 80 14 356 356 354 351 351 351 346 341 340 340 336 334 339 349 353 348 343 340 334 329 331 333 329 324 324 325 325 328 330 328 326 326 325
116 112 112 118 119 109 85 57 38 30 27 35 44 40 14 7 15 4 24 40 27 353 32 20 336 329 344 331 298 282 9 19 355 242 267 333 21 355 314 21 284 234 91 56 333 242 136 91 37 19 72 85 54 8 0 356 347 341 346 349 344 341 342 339 333 334 347 359 354 344 338 336 333 329 329 330 328 324 323 324 326 328 328 327 325 324 324
113 114 117 114 96 59 34 24 26 35 38 28 35 34 358 0 37 28 22 66 58 326 349 358 323 308 303 302 260 224 241 335 328 256 281 340 342 311 346 43 7 353 52 28 276 245 95 110 256 46 60 52 21 7 360 347 338 335 339 342 341 341 340 334 329 334 347 353 348 340 335 331 328 326 324 326 326 324 322 324 327 327 326 326 325 324 325
123 104 94 90 41 11 6 357 7 39 48 32 30 27 351 356 31 336 327 11 38 4 5 0 334 323 338 46 22 242 238 268 214 199 326 353 336 336 37 51 34 356 13 341 326 42 103 213 255 54 50 22 6 3 350 338 337 340 336 336 339 342 338 333 335 341 343 343 342 339 334 329 327 325 322 324 326 324 322 324 328 329 328 326 324 323 327
180 11 42 51 9 356 8 357 354 35 56 36 6 80 354 343 349 354 0 12 346 322 0 24 326 298 287 303 333 165 294 291 240 94 348 326 354 42 41 33 352 340 119 123 351 138 162 248 341 44 32 6 355 351 339 332 339 350 339 335 339 341 336 335 343 347 342 339 339 337 333 331 330 326 323 323 325 324 322 324 328 330 329 326 325 325 328
87 53 61 68 19 344 18 60 20 23 73 62 352 14 9 347 346 358 19 7 319 320 338 348 305 285 291 310 325 118 1 313 314 78 336 296 13 54 49 268 322 7 23 305 264 237 281 344 0 24 15 359 346 338 332 331 343 352 343 335 335 336 334 336 343 343 340 338 337 335 333 332 330 327 323 321 322 324 324 323 326 328 327 325 324 325 326
83 46 60 79 59 345 8 68 39 12 35 46 18 24 22 351 331 348 47 7 332 326 317 290 265 254 269 296 298 110 42 350 14 46 355 291 121 82 107 179 69 28 312 299 299 290 319 348 11 26 10 353 339 332 329 331 343 349 343 335 332 333 334 338 342 342 340 337 335 333 333 331 328 326 322 319 320 323 324 323 323 325 325 323 323 324 325
83 16 49 83 95 339 33 78 109 77 66 64 29 33 39 284 282 37 103 123 300 313 309 290 275 243 229 249 273 289 339 4 24 37 11 344 32 31 7 5 8 248 231 248 297 320 331 354 22 19 356 341 332 328 329 333 343 343 338 333 332 333 334 337 340 340 340 338 333 330 332 331 327 323 321 319 319 320 323 324 324 323 322 321 323 326 328
72 73 72 86 123 104 47 38 252 164 105 111 154 170 200 272 314 63 97 172 288 330 314 280 287 302 322 5 2 11 13 8 357 346 8 26 46 76 341 312 296 272 208 199 282 319 337 12 30 1 341 336 331 326 324 335 343 339 333 332 331 330 331 334 335 337 339 338 333 329 330 328 324 321 322 321 318 316 320 324 324 324 325 329 328 327 329
53 65 71 66 87 103 112 236 251 179 129 139 149 114 346 317 0 73 94 50 326 328 231 243 257 273 281 338 46 59 43 14 340 319 23 56 88 136 235 255 249 243 155 5 310 323 344 20 11 337 326 327 327 323 326 338 337 331 330 333 331 326 326 331 335 336 337 335 328 325 326 327 325 323 322 319 315 315 321 329 332 331 334 339 338 332 328
46 68 74 353 7 76 118 217 1 29 76 118 83 49 345 320 346 55 64 33 293 245 230 232 265 256 252 41 41 36 61 121 37 8 7 112 152 182 235 258 253 284 3 355 351 349 358 17 358 332 321 321 322 323 330 334 328 324 329 334 331 325 325 332 335 336 333 326 321 321 322 322 323 323 320 318 316 316 322 332 337 335 335 338 339 333 327
50 71 80 67 23 14 337 320 52 48 51 74 71 46 326 340 12 27 216 241 262 282 349 92 177 293 346 53 58 61 150 151 140 294 214 185 183 203 237 286 12 20 338 330 342 356 13 15 355 325 313 316 319 322 326 326 323 326 334 334 329 324 333 341 340 336 328 316 314 318 318 318 321 325 324 323 322 320 321 325 328 329 331 333 333 330 329